Flag for U.S.A. Weather past 2 weeks in Peoria, Illinois, U.S.A.

Now
75 °F

Fog.


Feels Like: 74 °F
Forecast: 71 / 85 °F
Wind: 3 mph from North

Location: Greater Peoria Regional Airport

Current Time: Jul 29, 2015 at 4:42:09 AM

Latest Report: Jul 29, 2015 at 3:54 AM


Visibility: 5 mi

Pressure: 29.93 "Hg

Humidity: 90%

Dew point: 72 °F

Location of PeoriaLocation

Historic Weather in Peoria — Graph

°F

Peoria temperature yesterday

Maximum temperature yesterday: 89 °F (at 11:54 AM)
Minimum temperature yesterday: 74 °F (at 4:54 AM)
Average temperature yesterday: 81 °F

Past Weeks' High & Low Weather Summary

 TemperatureHumidityPressure
High93 °F (Jul 17, 4:54 PM)94% (Jul 27, 2:58 AM)30.04 "Hg (Jul 27, 2:58 AM)
Low63 °F (Jul 15, 5:54 AM)40% (Jul 21, 3:54 PM)29.61 "Hg (Jul 14, 3:54 AM)
Average79 °F71%29.90 "Hg
* Reported Jul 14 2:54 AM — Jul 29 2:54 AM, Peoria, Weather by CustomWeather, © 2015

Note: Actual official high and low records may vary slightly from our data, if they occured in-between our weather recording intervals... More about our weather records

Advertising

Peoria weather history for previous 24 hours

 ConditionsComfort  
Time TempWeatherWind HumidityBarometerVisibility
2:54 AM
Wed, Jul 29
76 °FPassing clouds.6 mph88%29.91 "Hg10 mi
1:54 AM75 °FStrong thunderstorms. Mostly cloudy.7 mph85%29.93 "Hg2 mi
1:04 AM81 °FThunderstorms. Passing clouds.9 mph72%29.95 "Hg10 mi
12:54 AM80 °FThundershowers. Partly cloudy.6 mph76%29.93 "Hg10 mi
11:54 PM
Tue, Jul 28
81 °FPassing clouds.7 mph74%29.93 "Hg10 mi
10:54 PM81 °FClear.No wind74%29.93 "Hg10 mi
9:54 PM81 °FClear.7 mph79%29.90 "Hg10 mi
8:54 PM83 °FSunny.5 mph72%29.92 "Hg7 mi
7:54 PM84 °FPassing clouds.5 mph74%29.91 "Hg10 mi
6:54 PM85 °FSunny.6 mph72%29.88 "Hg10 mi
5:54 PM85 °FSunny.7 mph70%29.88 "Hg10 mi
4:54 PM84 °FSunny.5 mph72%29.89 "Hg10 mi
3:54 PM83 °FSunny.7 mph72%29.89 "Hg10 mi
2:54 PM80 °FSunny.8 mph76%29.93 "Hg10 mi
1:54 PM80 °FMostly cloudy.14 mph74%29.96 "Hg10 mi
12:54 PM89 °FPartly sunny.3 mph68%29.96 "Hg10 mi
11:54 AM89 °FScattered clouds.6 mph65%29.95 "Hg10 mi
10:54 AM87 °FSunny.No wind67%29.95 "Hg9 mi
9:54 AM85 °FSunny.6 mph70%29.94 "Hg9 mi
8:54 AM82 °FSunny.6 mph77%29.94 "Hg9 mi
7:54 AM79 °FSunny.5 mph82%29.96 "Hg6 mi
6:54 AM76 °FSunny.3 mph85%29.95 "Hg5 mi
5:54 AM75 °FFog.5 mph88%29.93 "Hg5 mi
4:54 AM74 °FFog.No wind91%29.93 "Hg5 mi
Weather by CustomWeather, © 2015

See weather overviewHow to use our weather pages